Owen Roberts, Cayman Islands

8:21 PM EST on October 23, 2017 (GMT -0500)
Roberts International

Weather History for MWCR - August, 2014

Change the Weather History Date:

Sunday, August 10, 2014

  Actual Average Record
Temperature  
Mean Temperature 81 °F -  
Max Temperature 85 °F 87 °F 92 °F (2017)
Min Temperature 77 °F 79 °F 77 °F (2000)
Cooling Degree Days 16    
Growing Degree Days 31 (Base 50)    
Moisture  
Dew Point 79 °F    
Average Humidity 81    
Maximum Humidity 100    
Minimum Humidity 62    
Precipitation  
Precipitation 0.01 in - - ()
Sea Level Pressure  
Sea Level Pressure 29.97 in    
Wind  
Wind Speed 6 mph ()    
Max Wind Speed 13 mph    
Max Gust Speed 21 mph    
Visibility 6.0 miles    
Events Rain , Thunderstorm    
Averages and records for this station are not official NWS values.
T = Trace of Precipitation, MM = Missing Value Source: Averaged Metar Reports

Daily Weather History Graph

Daily Weather History Graph

Search for Another Location

Airport or City:

Trip Planner

Search our weather history database for the weather conditions in past years. The results will help you decide how hot, cold, wet, or windy it might be!

Date:

Astronomy

Aug. 10, 2014 Rise Set
Actual Time 6:04 AM EST 6:56 PM EST
Civil Twilight 5:41 AM EST 7:19 PM EST
Nautical Twilight 5:14 AM EST 7:46 PM EST
Astronomical Twilight 4:47 AM EST 8:13 PM EST
Moon 6:53 PM EST (8/10) 5:49 AM EST (8/10)
Length of Visible Light 13h 37m
Length of Day
12h 51m
Full, 100% of the Moon is Illuminated
Aug 10
Full
Aug 10
Full
Aug 17
Last Quarter
Aug 25
New
Sep 2
First Quarter

Hourly Weather History & Observations

Time (EST) Temp. Heat Index Dew Point Humidity Pressure Visibility Wind Dir Wind Speed Gust Speed Precip Events Conditions
6:00 AM 80.6 °F 88.1 °F 78.8 °F 94% 29.95 in 6.2 mi Variable 1.2 mph - N/A   Partly Cloudy
7:00 AM 83 °F - 80 °F 88% 29.98 in 6 mi East 2.3 mph - -   Scattered Clouds
7:00 AM 82.4 °F 94.0 °F 80.6 °F 94% 29.98 in 6.2 mi East 2.3 mph - N/A   Partly Cloudy
8:00 AM 86.0 °F 101.9 °F 80.6 °F 84% 29.98 in 6.2 mi East 8.1 mph - N/A   Partly Cloudy
10:00 AM 89.6 °F 104.7 °F 78.8 °F 70% 29.98 in 6.2 mi ESE 8.1 mph - N/A   Scattered Clouds
11:00 AM 89.6 °F 108.2 °F 80.6 °F 75% 29.98 in 6.2 mi ESE 9.2 mph - N/A   Partly Cloudy
12:00 PM 89.6 °F 102.2 °F 77.0 °F 66% 29.98 in 6.2 mi ESE 11.5 mph - N/A   Mostly Cloudy
1:00 PM 90 °F - 79 °F 62% 29.98 in 6 mi ESE 12.7 mph - -   Mostly Cloudy
1:00 PM 89.6 °F 104.7 °F 78.8 °F 70% 29.98 in 6.2 mi ESE 12.7 mph - N/A   Mostly Cloudy
2:00 PM 89.6 °F 104.7 °F 78.8 °F 70% 29.95 in 6.2 mi SE 11.5 mph - N/A   Scattered Clouds
3:00 PM 89.6 °F 102.2 °F 77.0 °F 66% 29.95 in 6.2 mi SE 10.4 mph - N/A   Scattered Clouds
4:00 PM 87.8 °F 102.5 °F 78.8 °F 75% 29.92 in 6.2 mi ESE 8.1 mph - N/A   Mostly Cloudy
5:00 PM 86.0 °F 99.3 °F 78.8 °F 79% 29.92 in 6.2 mi SE 5.8 mph - N/A   Scattered Clouds
6:00 PM 86.0 °F 99.3 °F 78.8 °F 79% 29.95 in 6.2 mi ESE 4.6 mph - N/A   Mostly Cloudy
7:00 PM 83 °F - 79 °F 86% 29.99 in 6 mi East 9.2 mph - -   Partly Cloudy
7:00 PM 77.0 °F - 75.2 °F 94% 29.95 in 3.7 mi SE 8.1 mph 20.7 mph N/A Rain , Thunderstorm Light Thunderstorms and Rain
8:00 PM 80.6 °F 88.1 °F 78.8 °F 94% 29.98 in 6.2 mi SE 4.6 mph - N/A   Scattered Clouds
9:00 PM 80.6 °F 89.3 °F 80.6 °F 100% 29.98 in 6.2 mi East 3.5 mph - N/A Thunderstorm Thunderstorm
10:00 PM 80.6 °F 89.3 °F 80.6 °F 100% 30.01 in 6.2 mi East 12.7 mph - N/A Rain , Thunderstorm Light Thunderstorms and Rain